Wichita, KS

12:58 AM CDT on October 01, 2016 (GMT -0500)
McConnell Air Force Base

Weather History for KIAB - June, 2013

Change the Weather History Date:

Sunday, June 23, 2013

  Actual Average Record
Temperature  
Mean Temperature 83 °F -  
Max Temperature 92 °F 84 °F 98 °F (1998)
Min Temperature 75 °F 65 °F 59 °F (2004)
Cooling Degree Days 18    
Growing Degree Days 33 (Base 50)    
Moisture  
Dew Point 68 °F    
Average Humidity 63    
Maximum Humidity 83    
Minimum Humidity 37    
Precipitation  
Precipitation 0.00 in - - ()
Sea Level Pressure  
Sea Level Pressure 29.82 in    
Wind  
Wind Speed 19 mph (SSE)    
Max Wind Speed 26 mph    
Max Gust Speed 34 mph    
Visibility 10 miles    
Events Rain    
Averages and records for this station are not official NWS values.
T = Trace of Precipitation, MM = Missing Value Source: NWS Daily Summary

Daily Weather History Graph

Daily Weather History Graph

Search for Another Location

Airport or City:

Trip Planner

Search our weather history database for the weather conditions in past years. The results will help you decide how hot, cold, wet, or windy it might be!

Date:

Astronomy

Jun. 23, 2013 Rise Set
Actual Time 6:08 AM CDT 8:54 PM CDT
Civil Twilight 5:37 AM CDT 9:25 PM CDT
Nautical Twilight 4:58 AM CDT 10:04 PM CDT
Astronomical Twilight 4:13 AM CDT 10:48 PM CDT
Moon 9:09 PM CDT (6/23) 6:25 AM CDT (6/23)
Length of Visible Light 15h 48m
Length of Day
14h 45m
Full, 100% of the Moon is Illuminated
Jun 23
Full
Jun 29
Last Quarter
Jul 8
New
Jul 15
First Quarter
Jul 22
Full

Hourly Weather History & Observations

Time (CDT) Temp. Heat Index Dew Point Humidity Pressure Visibility Wind Dir Wind Speed Gust Speed Precip Events Conditions
12:58 AM 77.7 °F - 69.6 °F 76% 29.83 in 10.0 mi SE 17.3 mph 24.2 mph N/A   Clear
1:58 AM 78.4 °F - 69.3 °F 73% 29.82 in 10.0 mi SSE 18.4 mph 28.8 mph N/A   Clear
2:58 AM 78.6 °F - 68.7 °F 72% 29.80 in 10.0 mi SSE 25.3 mph 32.2 mph N/A   Clear
3:58 AM 77.7 °F - 68.7 °F 74% 29.81 in 10.0 mi SE 16.1 mph - N/A   Clear
4:58 AM 77.2 °F - 68.4 °F 74% 29.81 in 10.0 mi SSE 20.7 mph 26.5 mph N/A   Partly Cloudy
5:58 AM 77.9 °F - 68.4 °F 72% 29.81 in 10.0 mi SSE 23.0 mph 31.1 mph N/A   Scattered Clouds
6:58 AM 77.5 °F - 68.7 °F 74% 29.82 in 10.0 mi SSE 17.3 mph - N/A   Partly Cloudy
7:01 AM 77.0 °F - 69.8 °F 78% 29.86 in 10.0 mi SSE 23.0 mph 27.6 mph N/A Rain Light Rain
7:14 AM 75.2 °F - 69.8 °F 83% 29.86 in 10.0 mi SSE 18.4 mph 27.6 mph N/A   Scattered Clouds
7:58 AM 76.5 °F - 69.1 °F 78% 29.82 in 10.0 mi SSE 24.2 mph - 0.00 in   Clear
8:58 AM 80.4 °F 83.5 °F 69.3 °F 69% 29.82 in 10.0 mi South 17.3 mph 28.8 mph N/A   Clear
9:58 AM 83.5 °F 87.2 °F 69.1 °F 62% 29.83 in 10.0 mi South 25.3 mph 34.5 mph N/A   Clear
10:58 AM 83.5 °F 87.4 °F 69.8 °F 63% 29.83 in 10.0 mi South 17.3 mph - N/A   Partly Cloudy
11:58 AM 84.0 °F 87.8 °F 69.3 °F 61% 29.82 in 10.0 mi Calm Calm - N/A   Scattered Clouds
12:58 PM 83.3 °F 85.9 °F 66.9 °F 58% 29.84 in 10.0 mi Variable 4.6 mph - N/A   Clear
1:58 PM 87.8 °F 92.2 °F 69.3 °F 54% 29.82 in 10.0 mi SSE 18.4 mph 31.1 mph N/A   Mostly Cloudy
2:58 PM 91.0 °F 95.2 °F 68.5 °F 47% 29.81 in 10.0 mi SSE 23.0 mph 29.9 mph N/A   Partly Cloudy
3:58 PM 91.8 °F 95.1 °F 67.3 °F 44% 29.80 in 10.0 mi SSE 20.7 mph 31.1 mph N/A   Clear
4:58 PM 91.9 °F 94.5 °F 66.0 °F 42% 29.78 in 10.0 mi SSE 25.3 mph 34.5 mph N/A   Clear
5:58 PM 91.2 °F 91.4 °F 61.5 °F 37% 29.78 in 10.0 mi South 26.5 mph 33.4 mph N/A   Clear
6:58 PM 88.7 °F 89.1 °F 62.4 °F 41% 29.79 in 10.0 mi South 21.9 mph 28.8 mph N/A   Clear
7:58 PM 86.9 °F 88.3 °F 64.4 °F 47% 29.81 in 10.0 mi SSE 16.1 mph - N/A   Clear
8:58 PM 84.7 °F 87.4 °F 66.7 °F 55% 29.82 in 10.0 mi SSE 13.8 mph - N/A   Scattered Clouds
9:59 PM 82.4 °F 85.8 °F 68.9 °F 64% 29.84 in 10.0 mi SSE 16.1 mph - N/A   Clear
10:58 PM 80.4 °F 83.5 °F 69.6 °F 69% 29.86 in 10.0 mi SE 15.0 mph - N/A   Clear
11:58 PM 79.2 °F - 69.6 °F 72% 29.88 in 10.0 mi SE 15.0 mph - N/A   Clear